Location: Bannatyne
(13.0833°N, 59.5333°W)
Time: 14:27:21
(UTC+00:00)

Vanguard 2 Rocket - Pass Details

Date: 21 January 2020
Orbit: 554 x 3326 km, 32.9° (Epoch: 29 March)

Event Time Altitude Azimuth Distance (km) Brightness Sun altitude
Rises 17:57:37 0° 290° (WNW) 5,899 11.2 47.6°
Reaches altitude 10° 18:01:13 10° 285° (WNW) 5,204 11.1 47.1°
Maximum altitude 18:16:58 49° 216° (SW) 3,800 12.8 44.5°
Drops below altitude 10° 18:36:06 10° 147° (SSE) 6,140 11.3 41.1°
Sets 18:40:55 0° 141° (SE) 6,980 11.4 40.2°
